Zurück zum Katalog

STARLINK-35733

AktivKommunikationVLEO
NORAD 66224·PAYLOAD·🇺🇸 United States

Gestartet Oct 28, 2025 von Vandenberg Space Force Base

Loading…

Nächste Überflüge (nächste 24 Stunden)

TLE

AktuellSource: CelesTrak SupGP

Epoche: Sep 14, 2026, 22:31 UTC

1 66224C 25244U   26257.93868056  .00042998  00000+0  12705-2 0  2579
2 66224  53.1592  69.5215 0000717  63.2937 286.9065 15.34366717    10

Verfolge STARLINK-35733 in Echtzeit mit AllMySat

Download on the App Store